ギブス彗星

P/2023 Y1 ( Gibbs )

English version
Home page
Updated on May 15, 2024

---------------------------------------------------------------------

・ プロフィール

発見日 2023年12月17日
発見光度 20.4等
発見者 A. R. Gibbs (Mt. Lemmon Survey)

・ 写真集

・ 軌道要素

Epoch 2024 Mar. 31.0 TT = JDT 2460400.5
T 2023 Nov. 29.75699 TT                                 Rudenko
q   2.0797983            (2000.0)            P               Q
n   0.13583345     Peri.   51.43439     -0.64192014     -0.75897070
a   3.7479884      Node    78.85717     +0.66437921     -0.62157365
e   0.4450894      Incl.    6.38406     +0.38280386     -0.19393214
P   7.26
>From 93 observations 2023 Nov. 24-2024 Apr. 10, mean residual 0".5.

・ 光度変化

        m1 = 15.0 + 5 logΔ + 10.0 log r

---------------------------------------------------------------------

軌道要素はM.P.E.C. 2024-J304に掲載されたものです。
光度グラフはComet for Windowsで作成したものです。

---------------------------------------------------------------------

Copyright(C) Seiichi Yoshida (comet@aerith.net). All rights reserved.